TimeEDT,TemperatureF,Dew PointF,Humidity,Sea Level PressureIn,VisibilityMPH,Wind Direction,Wind SpeedMPH,Gust SpeedMPH,PrecipitationIn,Events,Conditions,WindDirDegrees,DateUTC
12:15 AM,50.0,48.2,94,29.90,3.0,Calm,Calm,-,N/A,,Mostly Cloudy,0,2013-03-19 04:15:00
12:35 AM,50.0,48.2,94,29.89,4.0,North,3.5,-,N/A,,Mostly Cloudy,360,2013-03-19 04:35:00
12:55 AM,50.0,50.0,100,29.89,5.0,Calm,Calm,-,N/A,,Mostly Cloudy,0,2013-03-19 04:55:00
1:15 AM,50.0,50.0,100,29.89,5.0,Calm,Calm,-,N/A,,Overcast,0,2013-03-19 05:15:00
1:35 AM,50.0,50.0,100,29.88,5.0,North,3.5,-,N/A,,Mostly Cloudy,350,2013-03-19 05:35:00
1:55 AM,50.0,50.0,100,29.88,10.0,NW,5.8,-,N/A,,Scattered Clouds,310,2013-03-19 05:55:00
2:15 AM,51.8,50.0,94,29.89,10.0,Calm,Calm,-,N/A,,Scattered Clouds,0,2013-03-19 06:15:00
2:35 AM,50.0,50.0,100,29.91,10.0,Calm,Calm,-,N/A,,Mostly Cloudy,0,2013-03-19 06:35:00
2:55 AM,50.0,50.0,100,29.93,7.0,WNW,4.6,-,N/A,,Overcast,300,2013-03-19 06:55:00
3:15 AM,51.8,51.8,100,29.93,10.0,WNW,3.5,-,N/A,,Mostly Cloudy,300,2013-03-19 07:15:00
3:35 AM,51.8,51.8,100,29.93,10.0,NW,6.9,-,N/A,,Scattered Clouds,310,2013-03-19 07:35:00
3:55 AM,51.8,51.8,100,29.94,10.0,WNW,5.8,-,N/A,,Mostly Cloudy,300,2013-03-19 07:55:00
4:15 AM,53.6,51.8,94,29.95,10.0,WNW,8.1,-,N/A,,Overcast,300,2013-03-19 08:15:00
4:35 AM,53.6,51.8,94,29.94,10.0,NNW,9.2,-,N/A,,Overcast,330,2013-03-19 08:35:00
4:55 AM,51.8,51.8,100,29.93,10.0,NNW,10.4,-,N/A,,Overcast,330,2013-03-19 08:55:00
5:15 AM,51.8,51.8,100,29.95,10.0,NNW,11.5,-,N/A,,Overcast,330,2013-03-19 09:15:00
5:35 AM,51.8,50.0,94,29.96,10.0,NNW,13.8,18.4,N/A,,Overcast,330,2013-03-19 09:35:00
5:55 AM,51.8,46.4,82,29.98,10.0,NNW,13.8,21.9,N/A,,Overcast,330,2013-03-19 09:55:00
6:15 AM,50.0,46.4,87,29.99,10.0,NNW,11.5,21.9,N/A,,Overcast,340,2013-03-19 10:15:00
6:35 AM,50.0,44.6,82,30.01,10.0,NNW,12.7,-,N/A,,Overcast,340,2013-03-19 10:35:00
6:55 AM,48.2,42.8,82,30.02,10.0,NNW,16.1,21.9,N/A,,Overcast,340,2013-03-19 10:55:00
7:15 AM,46.4,41.0,81,30.03,10.0,North,8.1,18.4,N/A,,Scattered Clouds,350,2013-03-19 11:15:00
7:35 AM,44.6,41.0,87,30.05,10.0,North,8.1,-,N/A,,Clear,360,2013-03-19 11:35:00
7:55 AM,44.6,37.4,76,30.05,10.0,North,9.2,-,N/A,,Clear,360,2013-03-19 11:55:00
8:15 AM,44.6,33.8,66,30.05,10.0,North,8.1,-,N/A,,Clear,360,2013-03-19 12:15:00
8:35 AM,44.6,33.8,66,30.06,10.0,NNE,4.6,-,N/A,,Clear,30,2013-03-19 12:35:00
8:55 AM,44.6,33.8,66,30.05,10.0,NNE,5.8,-,N/A,,Clear,20,2013-03-19 12:55:00
9:15 AM,46.4,33.8,62,30.06,10.0,NNE,8.1,-,N/A,,Clear,20,2013-03-19 13:15:00
9:35 AM,46.4,32.0,57,30.05,10.0,NNE,6.9,-,N/A,,Clear,20,2013-03-19 13:35:00
9:55 AM,48.2,32.0,54,30.05,10.0,NNE,8.1,-,N/A,,Clear,30,2013-03-19 13:55:00
10:15 AM,50.0,32.0,50,30.07,10.0,NNE,8.1,-,N/A,,Clear,20,2013-03-19 14:15:00
10:35 AM,50.0,32.0,50,30.07,10.0,North,10.4,-,N/A,,Clear,10,2013-03-19 14:35:00
10:55 AM,51.8,32.0,47,30.08,10.0,North,9.2,-,N/A,,Clear,360,2013-03-19 14:55:00
11:15 AM,51.8,32.0,47,30.08,10.0,NNE,8.1,17.3,N/A,,Clear,20,2013-03-19 15:15:00
11:35 AM,53.6,32.0,44,30.08,10.0,North,10.4,-,N/A,,Clear,10,2013-03-19 15:35:00
11:55 AM,53.6,32.0,44,30.09,10.0,North,9.2,-,N/A,,Clear,10,2013-03-19 15:55:00
12:15 PM,55.4,32.0,41,30.09,10.0,NNW,10.4,-,N/A,,Clear,340,2013-03-19 16:15:00
12:35 PM,57.2,32.0,38,30.09,10.0,NNW,6.9,-,N/A,,Clear,340,2013-03-19 16:35:00
12:55 PM,59.0,30.2,34,30.08,10.0,North,8.1,-,N/A,,Clear,360,2013-03-19 16:55:00
1:15 PM,59.0,30.2,34,30.08,10.0,NNW,6.9,-,N/A,,Clear,340,2013-03-19 17:15:00
1:35 PM,60.8,30.2,31,30.08,10.0,NNW,6.9,-,N/A,,Clear,340,2013-03-19 17:35:00
1:55 PM,60.8,26.6,27,30.07,10.0,NNE,12.7,16.1,N/A,,Clear,20,2013-03-19 17:55:00
2:15 PM,60.8,26.6,27,30.08,10.0,NNW,9.2,-,N/A,,Clear,340,2013-03-19 18:15:00
2:35 PM,60.8,26.6,27,30.08,10.0,North,12.7,17.3,N/A,,Clear,10,2013-03-19 18:35:00
2:55 PM,62.6,26.6,26,30.08,10.0,NW,12.7,19.6,N/A,,Clear,320,2013-03-19 18:55:00
3:15 PM,62.6,28.4,27,30.07,10.0,North,11.5,-,N/A,,Clear,360,2013-03-19 19:15:00
3:35 PM,62.6,30.2,30,30.07,10.0,NW,12.7,20.7,N/A,,Clear,310,2013-03-19 19:35:00
3:55 PM,62.6,28.4,27,30.07,10.0,North,12.7,18.4,N/A,,Clear,350,2013-03-19 19:55:00
4:15 PM,62.6,30.2,30,30.08,10.0,North,15.0,18.4,N/A,,Clear,350,2013-03-19 20:15:00
4:35 PM,62.6,32.0,32,30.07,10.0,NNW,9.2,19.6,N/A,,Clear,330,2013-03-19 20:35:00
4:55 PM,62.6,30.2,30,30.08,10.0,NW,11.5,-,N/A,,Clear,310,2013-03-19 20:55:00
5:15 PM,62.6,30.2,30,30.07,10.0,NNW,12.7,24.2,N/A,,Clear,340,2013-03-19 21:15:00
5:35 PM,62.6,28.4,27,30.07,10.0,NNW,11.5,-,N/A,,Clear,330,2013-03-19 21:35:00
5:55 PM,62.6,30.2,30,30.06,10.0,NNW,12.7,-,N/A,,Clear,330,2013-03-19 21:55:00
6:15 PM,60.8,30.2,31,30.06,10.0,North,12.7,-,N/A,,Clear,360,2013-03-19 22:15:00
6:35 PM,60.8,28.4,29,30.07,10.0,NNE,10.4,-,N/A,,Clear,20,2013-03-19 22:35:00
6:55 PM,60.8,28.4,29,30.07,10.0,North,8.1,-,N/A,,Clear,350,2013-03-19 22:55:00
7:15 PM,59.0,30.2,34,30.07,10.0,North,9.2,-,N/A,,Clear,350,2013-03-19 23:15:00
7:35 PM,57.2,30.2,36,30.06,10.0,North,6.9,-,N/A,,Clear,360,2013-03-19 23:35:00
7:55 PM,55.4,28.4,36,30.06,10.0,North,5.8,-,N/A,,Clear,350,2013-03-19 23:55:00
8:15 PM,53.6,28.4,38,30.06,10.0,North,5.8,-,N/A,,Clear,350,2013-03-20 00:15:00
8:35 PM,53.6,28.4,38,30.05,10.0,North,5.8,-,N/A,,Clear,10,2013-03-20 00:35:00
8:55 PM,51.8,28.4,41,30.05,10.0,North,6.9,-,N/A,,Clear,360,2013-03-20 00:55:00
9:35 PM,53.6,28.4,38,30.06,10.0,North,6.9,-,N/A,,Clear,10,2013-03-20 01:35:00
9:55 PM,53.6,28.4,38,30.07,10.0,North,9.2,-,N/A,,Clear,10,2013-03-20 01:55:00
10:15 PM,51.8,26.6,38,30.07,10.0,North,8.1,-,N/A,,Clear,10,2013-03-20 02:15:00
10:35 PM,51.8,26.6,38,30.07,10.0,North,9.2,17.3,N/A,,Clear,10,2013-03-20 02:35:00
10:55 PM,51.8,26.6,38,30.08,10.0,North,8.1,-,N/A,,Clear,10,2013-03-20 02:55:00
11:15 PM,51.8,26.6,38,30.09,10.0,North,6.9,-,N/A,,Clear,10,2013-03-20 03:15:00
11:35 PM,50.0,26.6,40,30.10,10.0,North,8.1,-,N/A,,Clear,10,2013-03-20 03:35:00
11:55 PM,50.0,24.8,37,30.09,10.0,North,6.9,-,N/A,,Clear,10,2013-03-20 03:55:00